Wind_Speed
45 45 44 42 40 40 40 39 38 37 36 35 35 35 35 35 36 37 39 40 40 40 40 39 38 37 36 35 34 34 33 33 33 32 32 33 33 34 34 35 35 34
46 45 43 41 40 39 40 40 39 39 38 37 37 36 36 36 36 36 37 38 39 39 39 39 39 38 37 36 35 34 34 34 34 34 34 34 35 36 36 36 36 36
41 40 39 38 37 37 37 38 38 39 39 38 38 38 37 37 36 35 34 35 36 38 39 39 39 39 39 38 37 37 36 36 36 36 36 36 36 37 37 37 38 38
40 39 38 37 36 36 37 38 39 41 41 40 39 38 38 37 36 35 34 34 34 36 38 39 39 39 39 39 39 38 38 37 37 37 37 37 37 38 39 39 40 40
42 42 40 38 38 39 39 39 39 39 39 38 37 36 36 35 35 35 34 34 35 36 37 38 40 40 41 41 40 40 40 39 39 39 39 39 39 40 41 41 41 41
41 44 42 39 39 39 38 38 37 36 35 35 35 35 35 35 36 36 36 36 36 37 38 39 40 41 42 43 43 42 42 41 41 41 41 41 41 41 41 42 42 42
39 41 42 40 38 38 37 36 35 34 34 34 34 34 34 34 33 34 35 36 37 38 39 40 40 41 41 42 43 43 42 42 42 42 42 42 41 41 41 41 41 41
41 39 40 40 40 40 40 38 36 35 34 33 32 31 30 30 31 32 33 34 36 37 38 39 40 40 40 41 41 41 41 41 42 42 42 41 41 40 40 40 40 40
43 40 40 41 40 39 38 37 38 37 35 34 34 33 33 33 32 32 32 35 37 38 39 39 39 40 40 40 40 41 42 42 42 43 43 42 41 41 41 41 41 41
45 44 44 44 43 42 41 41 41 41 39 38 38 37 35 33 32 33 36 40 42 43 42 42 41 41 41 41 40 41 42 43 43 44 45 45 45 44 44 43 42 43
44 43 43 44 44 45 45 47 47 46 43 40 39 37 35 34 35 38 42 44 45 46 46 45 44 43 42 43 42 42 42 42 43 45 46 47 47 47 46 45 44 45
44 42 41 41 43 44 45 47 47 46 45 45 43 40 38 38 41 44 47 46 46 47 47 47 47 46 45 44 44 44 45 45 46 47 48 48 48 48 48 46 46 47
45 44 43 43 46 48 48 48 48 47 47 46 44 43 43 44 46 48 49 48 46 47 47 47 47 48 48 46 45 45 46 46 47 47 47 48 48 49 49 48 48 49
44 44 44 45 49 51 51 50 48 47 46 45 46 47 48 49 50 51 52 50 47 46 46 46 46 48 48 48 47 46 46 46 46 47 47 47 47 48 49 50 50 51
42 43 44 46 49 51 51 50 48 48 48 49 50 51 52 53 54 54 53 50 47 47 47 47 47 47 48 48 48 48 47 46 46 46 46 46 47 48 49 50 51 52
45 44 45 47 49 50 51 50 51 52 53 53 53 54 55 56 57 56 54 51 50 50 50 50 49 49 49 49 49 49 48 47 46 46 45 46 46 47 48 50 52 54
47 46 47 48 49 52 54 54 55 56 56 55 56 56 57 57 57 57 56 55 55 55 54 53 53 52 51 51 50 49 48 48 47 47 47 47 48 49 50 52 54 56
52 53 54 53 53 55 56 56 57 58 57 57 58 58 57 57 57 57 57 57 57 57 56 56 55 54 53 52 51 50 49 48 48 48 49 49 50 51 53 55 56 57
58 59 59 59 60 60 59 59 59 59 59 59 60 59 59 58 58 57 57 57 57 57 57 57 56 55 53 52 52 52 51 50 50 50 50 50 51 52 53 54 55 56
66 65 64 64 64 64 64 64 64 64 64 64 64 64 63 62 60 58 57 56 55 55 55 55 54 54 53 53 53 53 53 53 52 52 52 52 52 53 54 55 55 55
71 71 70 69 68 68 68 68 69 69 70 70 70 69 68 66 63 60 58 55 53 53 53 53 52 51 52 53 54 54 55 55 55 54 53 52 52 53 54 55 56 57
71 71 72 72 71 71 72 72 73 74 74 74 74 73 71 68 65 64 62 59 56 54 55 56 56 55 54 54 53 53 53 55 55 54 54 53 53 54 55 55 57 59
73 73 74 74 75 76 77 77 78 78 79 78 77 76 73 69 65 64 63 61 60 57 55 57 60 61 60 59 57 55 54 55 56 55 55 55 55 56 56 58 61 64
76 76 77 78 79 80 81 82 82 82 82 81 78 76 73 69 66 65 62 61 61 59 56 56 59 61 60 60 60 59 58 58 58 57 57 58 58 59 62 65 68 70
78 79 80 81 82 83 84 84 84 84 82 81 78 76 73 71 69 67 65 65 65 63 59 59 61 64 65 65 64 63 63 63 64 63 64 65 66 69 72 75 75 75
78 79 80 82 82 83 83 84 84 84 83 82 80 79 77 74 72 71 70 70 70 69 67 66 67 69 71 72 72 72 73 73 74 75 76 77 78 79 81 82 82 81
Wind_Direction
257 260 265 269 269 270 271 273 276 280 283 284 283 280 278 276 274 272 271 271 271 271 272 272 272 273 272 273 273 273 274 274 273 272 270 268 265 263 264 268 274 276
256 259 263 266 268 270 271 272 274 276 280 281 281 279 277 276 275 273 271 270 269 269 269 269 270 270 270 271 271 271 272 272 271 270 268 266 265 264 265 270 273 275
254 258 261 264 268 271 272 273 274 275 278 280 279 279 278 277 276 275 274 272 270 269 268 268 269 270 270 270 270 270 270 270 269 268 267 265 265 265 268 271 273 275
255 258 262 265 270 273 276 277 277 277 277 277 278 278 277 276 276 276 276 275 273 271 269 269 269 269 269 269 269 269 268 268 267 267 267 266 266 267 269 272 273 274
256 259 263 269 273 275 277 276 276 275 274 273 274 275 275 276 276 277 278 278 277 274 272 270 268 268 268 269 269 269 268 268 267 267 267 266 267 268 270 271 272 272
261 265 268 272 272 272 271 271 271 270 269 270 270 272 273 275 277 278 279 279 278 277 275 272 270 269 269 269 270 270 270 270 269 267 267 267 267 268 269 270 271 272
259 264 266 267 267 269 271 271 270 268 268 269 270 271 273 275 278 280 281 281 281 280 278 276 275 274 273 273 273 273 272 271 270 268 267 267 268 269 270 271 272 273
253 254 256 258 263 269 272 272 271 271 271 271 269 269 271 275 280 284 287 287 287 286 284 281 280 280 280 279 278 276 274 272 270 269 269 269 270 270 270 271 272 272
248 247 248 253 258 264 268 269 271 271 271 272 270 271 275 279 282 286 291 293 294 294 291 288 286 284 283 282 280 278 275 272 271 271 271 272 272 271 271 271 271 272
249 248 250 253 257 261 264 265 267 268 268 271 273 275 278 281 283 289 296 298 299 297 295 294 292 289 286 284 282 280 277 274 273 273 274 274 274 273 272 272 271 270
252 255 256 259 263 266 267 268 268 268 269 272 276 278 280 282 286 293 299 301 299 296 295 294 292 289 287 285 284 281 277 275 276 276 276 275 274 274 273 271 268 266
250 258 259 259 263 265 266 268 270 271 274 278 279 281 283 286 290 295 300 300 297 293 293 292 290 289 288 286 285 282 279 279 279 279 277 275 273 272 271 269 267 265
252 259 261 260 261 262 263 266 269 273 278 281 282 283 286 289 293 297 299 299 294 291 290 289 289 289 289 288 286 284 282 281 280 279 278 275 273 272 271 269 267 265
256 259 260 260 260 262 265 267 270 273 277 280 283 286 290 293 295 297 298 296 292 288 287 288 289 290 290 289 287 285 283 282 280 279 278 276 275 273 271 270 268 267
251 252 254 256 259 263 266 267 268 271 275 278 282 287 292 294 295 295 294 292 289 287 287 287 288 289 288 287 286 285 284 282 280 279 277 276 275 273 271 270 269 269
242 244 248 253 257 261 263 265 268 273 277 281 285 289 292 292 292 292 291 289 287 286 287 288 289 288 287 285 284 283 283 282 280 279 277 276 275 274 272 270 269 269
241 244 247 250 253 257 260 264 269 273 277 282 286 289 290 290 291 290 290 289 289 289 290 291 291 291 288 285 283 283 282 281 280 279 277 276 275 274 273 271 270 270
244 249 251 252 254 258 263 269 272 275 278 281 284 286 287 288 289 290 290 291 291 292 293 293 293 292 289 285 283 282 280 279 277 276 275 274 274 274 273 273 273 274
245 250 252 254 255 259 264 268 273 276 279 280 282 283 285 286 287 288 288 290 291 293 294 293 292 290 287 284 282 280 279 278 277 276 275 275 276 276 277 277 277 277
245 249 251 254 257 260 263 266 270 274 276 278 280 282 283 284 284 284 285 287 289 291 291 290 288 287 285 282 281 280 280 280 279 279 278 279 279 280 281 281 281 281
247 250 252 255 258 261 264 267 270 272 274 276 278 280 281 282 282 280 279 281 284 285 284 282 282 284 282 281 281 281 282 282 281 281 281 281 281 282 282 283 284 285
251 253 255 257 259 262 264 267 269 271 273 274 276 277 278 278 278 277 277 277 278 279 280 278 276 276 276 277 279 281 281 282 282 282 282 282 282 281 281 281 282 284
254 256 257 259 260 261 263 265 267 269 271 272 274 275 275 276 275 275 276 277 276 277 279 279 277 275 273 273 274 275 275 276 278 279 278 278 278 277 277 279 281 282
255 256 258 259 260 261 263 264 266 268 270 271 272 273 273 273 272 272 273 274 274 275 277 277 276 275 274 274 273 272 272 272 273 273 272 271 271 271 273 277 280 281
256 257 259 260 261 263 264 265 266 268 269 270 271 272 272 272 271 271 270 270 270 272 272 271 270 271 273 274 274 273 272 272 271 271 271 271 272 273 275 277 278 280
258 259 260 261 262 264 265 266 267 268 269 270 271 271 271 271 270 270 270 269 270 270 270 269 269 269 270 272 272 272 272 272 272 272 272 272 273 275 276 277 278 278
Height
10621 10622 10621 10621 10622 10623 10624 10624 10625 10626 10626 10627 10627 10628 10629 10630 10631 10632 10633 10633 10634 10635 10635 10636 10637 10637 10637 10638 10638 10638 10638 10638 10639 10640 10640 10641 10641 10640 10640 10640 10639 10638
10614 10615 10615 10615 10616 10617 10619 10620 10621 10622 10622 10623 10623 10624 10624 10625 10626 10628 10629 10629 10630 10630 10631 10631 10631 10632 10632 10633 10633 10633 10633 10633 10634 10634 10635 10635 10635 10635 10635 10635 10634 10634
10607 10608 10608 10609 10610 10612 10613 10615 10616 10617 10618 10618 10618 10619 10619 10620 10621 10622 10623 10624 10625 10626 10626 10626 10626 10627 10627 10628 10629 10629 10629 10629 10629 10629 10630 10630 10630 10630 10630 10630 10629 10629
10600 10602 10603 10605 10606 10607 10609 10610 10611 10611 10612 10613 10613 10613 10614 10615 10616 10617 10618 10619 10620 10621 10621 10621 10622 10622 10622 10623 10624 10624 10624 10624 10625 10625 10625 10625 10626 10626 10625 10624 10624 10623
10596 10599 10601 10602 10603 10603 10604 10604 10605 10605 10606 10607 10607 10608 10608 10609 10610 10611 10613 10614 10615 10615 10616 10616 10617 10617 10617 10618 10619 10619 10620 10620 10621 10621 10621 10621 10621 10621 10620 10619 10618 10617
10594 10596 10598 10598 10598 10598 10598 10599 10600 10600 10601 10602 10602 10602 10603 10605 10606 10607 10607 10608 10609 10609 10610 10611 10612 10612 10613 10613 10614 10614 10615 10616 10616 10616 10616 10616 10616 10616 10616 10614 10614 10613
10591 10592 10593 10593 10592 10592 10593 10594 10595 10595 10596 10597 10597 10598 10599 10600 10602 10602 10603 10603 10604 10605 10605 10606 10607 10608 10608 10609 10609 10610 10610 10611 10611 10611 10611 10611 10611 10612 10611 10610 10609 10608
10587 10587 10587 10588 10588 10588 10589 10590 10590 10590 10591 10592 10593 10594 10595 10596 10597 10598 10598 10599 10599 10600 10600 10601 10602 10603 10603 10604 10604 10605 10605 10605 10604 10604 10605 10606 10607 10607 10606 10605 10604 10603
10582 10583 10583 10583 10583 10583 10584 10585 10585 10585 10586 10587 10589 10590 10591 10592 10593 10593 10593 10593 10593 10594 10595 10596 10597 10598 10598 10599 10599 10599 10599 10599 10599 10599 10600 10601 10602 10602 10601 10600 10599 10598
10577 10578 10578 10578 10578 10578 10578 10579 10580 10580 10582 10583 10584 10586 10587 10587 10588 10588 10588 10587 10586 10587 10588 10589 10591 10592 10592 10593 10593 10593 10593 10593 10593 10594 10594 10595 10596 10596 10596 10596 10595 10593
10573 10573 10573 10572 10572 10571 10571 10572 10573 10575 10577 10578 10580 10580 10582 10582 10582 10582 10582 10582 10580 10579 10581 10582 10583 10585 10586 10587 10587 10587 10588 10588 10588 10588 10588 10588 10589 10589 10590 10590 10590 10589
10568 10567 10567 10567 10566 10565 10565 10564 10567 10569 10571 10573 10574 10574 10575 10576 10576 10576 10576 10576 10574 10573 10573 10574 10575 10577 10579 10581 10582 10581 10582 10582 10582 10582 10582 10582 10582 10583 10583 10584 10584 10583
10563 10562 10562 10562 10559 10558 10558 10559 10561 10564 10565 10565 10566 10567 10568 10569 10569 10569 10569 10570 10569 10568 10567 10568 10568 10568 10570 10572 10574 10574 10574 10574 10574 10575 10575 10576 10576 10577 10577 10577 10577 10577
10558 10557 10557 10556 10553 10551 10553 10554 10557 10559 10559 10559 10559 10560 10560 10561 10561 10562 10562 10563 10563 10563 10563 10563 10563 10562 10562 10563 10565 10565 10566 10566 10566 10567 10568 10569 10569 10570 10570 10570 10571 10571
10552 10553 10552 10550 10548 10547 10549 10550 10551 10553 10553 10554 10554 10554 10554 10554 10554 10555 10555 10556 10557 10557 10557 10557 10557 10557 10556 10556 10556 10557 10558 10559 10559 10560 10560 10561 10562 10562 10563 10563 10563 10564
10546 10548 10548 10546 10545 10545 10544 10545 10546 10547 10547 10548 10548 10548 10547 10547 10547 10548 10549 10549 10550 10550 10550 10550 10551 10551 10550 10550 10550 10550 10550 10550 10551 10552 10552 10553 10553 10555 10556 10556 10556 10556
10542 10544 10543 10542 10542 10540 10539 10540 10541 10541 10542 10542 10542 10542 10541 10540 10540 10540 10540 10541 10541 10542 10542 10542 10542 10542 10543 10542 10542 10542 10542 10542 10542 10543 10544 10544 10545 10546 10548 10548 10549 10549
10539 10539 10539 10538 10538 10536 10535 10535 10534 10534 10536 10537 10537 10536 10536 10535 10534 10533 10532 10532 10531 10532 10533 10533 10533 10533 10534 10534 10534 10534 10534 10535 10535 10535 10536 10536 10537 10538 10539 10539 10540 10540
10534 10535 10534 10533 10533 10532 10531 10530 10529 10528 10530 10530 10530 10531 10531 10530 10530 10528 10527 10526 10525 10525 10524 10524 10525 10526 10526 10526 10526 10526 10527 10527 10528 10528 10528 10529 10529 10530 10530 10530 10531 10531
10529 10529 10529 10528 10528 10528 10527 10526 10525 10524 10523 10523 10524 10525 10525 10525 10525 10524 10522 10521 10521 10520 10518 10517 10516 10517 10518 10518 10519 10519 10519 10520 10520 10520 10521 10521 10521 10521 10520 10520 10521 10521
10522 10523 10523 10523 10523 10523 10521 10520 10519 10518 10518 10518 10519 10519 10519 10520 10520 10518 10518 10518 10517 10516 10514 10512 10510 10509 10509 10509 10510 10511 10511 10511 10512 10512 10513 10513 10513 10512 10511 10511 10511 10511
10515 10515 10515 10516 10517 10516 10515 10513 10512 10512 10512 10513 10514 10514 10514 10515 10514 10510 10510 10513 10513 10512 10510 10508 10506 10504 10503 10502 10503 10503 10502 10502 10502 10503 10503 10504 10504 10503 10503 10503 10504 10504
10507 10507 10508 10508 10508 10507 10507 10507 10506 10505 10505 10506 10507 10507 10508 10509 10507 10504 10503 10504 10505 10506 10505 10502 10498 10496 10497 10499 10499 10498 10496 10495 10495 10495 10495 10496 10496 10494 10494 10495 10495 10495
10499 10499 10499 10499 10499 10498 10499 10499 10498 10498 10498 10499 10500 10499 10500 10501 10500 10498 10499 10498 10496 10499 10501 10498 10491 10486 10488 10492 10493 10492 10491 10489 10488 10489 10488 10488 10488 10486 10485 10485 10486 10486
10491 10490 10490 10489 10489 10489 10489 10490 10489 10489 10489 10490 10490 10490 10491 10492 10491 10491 10492 10490 10489 10491 10494 10493 10487 10481 10481 10484 10485 10484 10484 10482 10481 10480 10480 10479 10479 10478 10476 10475 10475 10476
10481 10481 10480 10480 10480 10479 10480 10480 10480 10480 10480 10481 10482 10482 10482 10483 10483 10482 10482 10481 10480 10481 10483 10484 10483 10479 10477 10477 10477 10477 10475 10474 10473 10471 10470 10470 10469 10468 10466 10464 10464 10464